Regional Weather Roundup
Issued by NWS

Home | Current Version | Previous Version | Text Only | Print | Product List | Glossary On
Versions: 1 2 3 4 5 6 7 8 9 10 11 12 13 14 15 16 17 18 19 20 21 22 23 24 25 26 27 28 29 30 31 32 33 34 35 36 37 38 39 40 41 42 43 44 45 46 47 48 49 50
475
ASUS43 KOAX 270310
RWRNE

WEATHER ROUNDUP FOR NEBRASKA
NATIONAL WEATHER SERVICE OMAHA NE
1000 PM CDT SUN JUN 26 2016

NOTES: SATELLITE DATA IS BEING USED TO AUGMENT CLOUD COVER ABOVE
       12000 FEET.
       "FAIR" INDICATES FEW OR NO CLOUDS BELOW 12,000 FEET WITH NO
       SIGNIFICANT WEATHER AND/OR OBSTRUCTIONS TO VISIBILITY.

  * THESE STATIONS DO NOT REPORT WEATHER SUCH AS RAIN...SNOW OR FOG.

NEZ001>004-019>022-054>056-270400-
NEBRASKA PANHANDLE

CITY           SKY/WX    TMP DP  RH WIND       PRES   REMARKS
SCOTTSBLUFF    CLEAR     79  48  33 NE12      30.14R
ALLIANCE       CLEAR     70  59  68 E8        30.12R
CHADRON        CLEAR     77  48  35 E8        30.13R
KIMBALL        CLEAR     71  53  53 NE5       30.21R
SIDNEY         PTCLDY    73  56  54 CALM      30.18R
$$

NEZ057>060-069>072-079>082-270400-
SOUTHWEST NEBRASKA

CITY           SKY/WX    TMP DP  RH WIND       PRES   REMARKS
NORTH PLATTE   TSTM      66  56  70 SE9G28    30.18R
IMPERIAL       CLOUDY    80  59  48 SE12      30.11R
LEXINGTON      CLEAR     75  56  52 E8        30.14R
MCCOOK         CLEAR     78  62  57 SE8       30.10R
OGALLALA       LGT RAIN  73  60  64 E18G28    30.12R
$$

NEZ005>010-023>029-035>040-094-270400-
NORTH CENTRAL NEBRASKA

CITY           SKY/WX    TMP DP  RH WIND       PRES   REMARKS
VALENTINE      CLOUDY    75  55  49 NE8       30.11R
AINSWORTH      CLOUDY    78  55  44 NE7       30.11R
BROKEN BOW     PTCLDY    78  52  40 S20G26    30.11S
O`NEILL        CLOUDY    76  56  50 SE6       30.10R
ORD            PTCLDY    77  55  46 SE6       30.10R
THEDFORD       CLOUDY    78  57  48 SE6       30.12R
$$

NEZ041-046>049-061>064-073>077-083>087-270400-
SOUTH CENTRAL NEBRASKA

CITY           SKY/WX    TMP DP  RH WIND       PRES   REMARKS
GRAND ISLAND   CLEAR     76  63  64 SE7       30.12R
AURORA         CLEAR     72  66  82 SE6       30.12R
HASTINGS       CLEAR     78  66  66 SE7       30.13R
HEBRON         CLOUDY    73  69  87 SE3       30.11R
HOLDREGE       CLEAR     73  60  64 SE9       30.13R
KEARNEY *      CLEAR     75  63  64 E8        30.14R
YORK           CLEAR     75  64  69 CALM      30.12R
$$

NEZ011>018-030>034-042>045-270400-
NORTHEAST NEBRASKA

CITY           SKY/WX    TMP DP  RH WIND       PRES   REMARKS
NORFOLK        CLEAR     73  59  61 S9        30.10R
ALBION         CLEAR     73  57  57 SE3       30.11R
BLAIR          CLEAR     76  60  57 S3        30.10S
FREMONT        CLEAR     77  62  59 SE6       30.11R
TEKAMAH        CLEAR     75  59  57 S7        30.09R
WAYNE          CLEAR     70  65  82 S8        30.11R
$$

NEZ050>053-065>068-078-088>093-270400-
SOUTHEAST NEBRASKA

CITY           SKY/WX    TMP DP  RH WIND       PRES   REMARKS
LINCOLN        CLEAR     79  68  69 SE6       30.10R
OMAHA EPPLEY   PTCLDY    78  63  59 SE5       30.09R
BEATRICE       PTCLDY    76  72  85 CALM      30.11R
FALLS CITY     CLOUDY    75  72  90 E3        30.08R
NEBRASKA CITY  CLEAR     75  69  82 E3        30.10S
PLATTSMOUTH    CLEAR     76  70  80 CALM      30.11R
$$

NEZ044-045-051>053-067-270400-
OMAHA AREA

CITY           SKY/WX    TMP DP  RH WIND       PRES   REMARKS
OMAHA EPPLEY   PTCLDY    78  63  59 SE5       30.09R
BLAIR          CLEAR     76  60  57 S3        30.10S
FREMONT        CLEAR     77  62  59 SE6       30.11R
MILLARD        CLEAR     74  66  75 CALM      30.10R
OFFUTT AFB     CLEAR     69  64  85 SE2       30.09R
PLATTSMOUTH    CLEAR     76  70  80 CALM      30.11R
WAHOO          FAIR      73  65  76 SE5       30.10S
$$




USA.gov is the U.S. government's official web portal to all federal, state and local government web resources and services.